VOZ901 YSSY-YBBN

Flight info

Callsign VOZ901
Flight time 1h 12m
Altitude 35000
Route OLSEM Y193 BANDA H252 BN
Aircraft B738/M-SDE2E3FGHIRWXY/LB1

Departure

Time 2026-04-21 05:19
Airport Sydney Kingsford Smith International Airport (YSSY)

Arrival

Time 2026-04-21 06:32
Airport Brisbane International Airport (YBBN)
Time Latitude Longitude Altitude Speed Heading
2026-04-21 04:20 -33.93704 151.17985 28 ft 0 kts 335°
2026-04-21 05:01 -33.93693 151.17984 30 ft 3 kts
2026-04-21 05:01 -33.93686 151.17986 30 ft 0 kts 13°
2026-04-21 05:01 -33.93701 151.17983 30 ft 0 kts 335°
2026-04-21 05:07 -33.93703 151.17984 30 ft 2 kts 332°
2026-04-21 05:07 -33.93715 151.17994 30 ft 3 kts 283°
2026-04-21 05:07 -33.93715 151.18017 30 ft 3 kts 271°
2026-04-21 05:08 -33.93718 151.18035 30 ft 3 kts 322°
2026-04-21 05:08 -33.93718 151.18037 30 ft 2 kts 338°
2026-04-21 05:08 -33.93700 151.18038 30 ft 3 kts 10°
2026-04-21 05:08 -33.93681 151.18047 30 ft 3 kts 26°
2026-04-21 05:09 -33.93672 151.18057 30 ft 3 kts 68°
2026-04-21 05:09 -33.93680 151.18061 30 ft 3 kts 145°
2026-04-21 05:09 -33.93697 151.18063 30 ft 1 kts 176°
2026-04-21 05:10 -33.93679 151.18061 30 ft 3 kts 166°
2026-04-21 05:10 -33.93661 151.18056 30 ft 2 kts 176°
2026-04-21 05:10 -33.93657 151.18056 30 ft 1 kts 177°
2026-04-21 05:13 -33.93658 151.18056 30 ft 1 kts 177°
2026-04-21 05:13 -33.93672 151.18057 30 ft 3 kts 174°
2026-04-21 05:14 -33.93718 151.18070 30 ft 10 kts 165°
2026-04-21 05:14 -33.93778 151.18040 30 ft 10 kts 249°
2026-04-21 05:14 -33.93812 151.17900 29 ft 25 kts 253°
2026-04-21 05:14 -33.93852 151.17783 20 ft 12 kts 223°
2026-04-21 05:15 -33.93906 151.17781 20 ft 9 kts 165°
2026-04-21 05:15 -33.94013 151.17809 22 ft 22 kts 169°
2026-04-21 05:15 -33.94187 151.17854 25 ft 28 kts 168°
2026-04-21 05:15 -33.94375 151.17904 26 ft 20 kts 167°
2026-04-21 05:16 -33.94503 151.17886 22 ft 18 kts 190°
2026-04-21 05:16 -33.94623 151.17909 25 ft 17 kts 167°
2026-04-21 05:16 -33.94750 151.17941 21 ft 22 kts 168°
2026-04-21 05:16 -33.94921 151.17986 23 ft 28 kts 167°
2026-04-21 05:17 -33.95071 151.18028 27 ft 17 kts 155°
2026-04-21 05:17 -33.95097 151.18139 24 ft 15 kts 78°
2026-04-21 05:17 -33.95069 151.18297 24 ft 22 kts 78°
2026-04-21 05:17 -33.95036 151.18481 28 ft 23 kts 77°
2026-04-21 05:18 -33.95002 151.18667 25 ft 23 kts 78°
2026-04-21 05:18 -33.94985 151.18819 23 ft 8 kts 107°
2026-04-21 05:18 -33.95041 151.18853 22 ft 14 kts 167°
2026-04-21 05:18 -33.95321 151.18926 19 ft 77 kts 168°
2026-04-21 05:19 -33.96055 151.19116 29 ft 137 kts 168°
2026-04-21 05:19 -33.97072 151.19383 504 ft 149 kts 167°
2026-04-21 05:19 -33.98040 151.19851 1299 ft 158 kts 143°
2026-04-21 05:19 -33.98726 151.20948 2074 ft 168 kts 127°
2026-04-21 05:20 -33.99425 151.22180 2613 ft 184 kts 131°
2026-04-21 05:20 -34.00224 151.23452 3164 ft 196 kts 130°
2026-04-21 05:20 -34.01032 151.24820 3664 ft 205 kts 128°
2026-04-21 05:20 -34.02073 151.26053 4016 ft 216 kts 147°
2026-04-21 05:21 -34.03349 151.27061 4568 ft 224 kts 147°
2026-04-21 05:21 -34.04679 151.28239 4781 ft 253 kts 144°
2026-04-21 05:21 -34.06028 151.29608 5706 ft 247 kts 142°
2026-04-21 05:21 -34.07339 151.30928 6643 ft 246 kts 143°
2026-04-21 05:22 -34.08684 151.32243 7345 ft 253 kts 144°
2026-04-21 05:22 -34.10050 151.33584 7979 ft 260 kts 143°
2026-04-21 05:22 -34.11308 151.35219 8575 ft 274 kts 121°
2026-04-21 05:22 -34.11838 151.37446 9357 ft 284 kts 96°
2026-04-21 05:23 -34.11453 151.39808 10184 ft 295 kts 66°
2026-04-21 05:23 -34.10220 151.41851 10627 ft 315 kts 44°
2026-04-21 05:23 -34.08251 151.43234 10846 ft 340 kts 21°
2026-04-21 05:23 -34.05953 151.44140 11265 ft 354 kts 18°
2026-04-21 05:24 -34.03573 151.44984 11914 ft 359 kts 17°
2026-04-21 05:24 -34.01169 151.45810 12722 ft 359 kts 17°
2026-04-21 05:24 -33.98745 151.46644 13395 ft 365 kts 17°
2026-04-21 05:24 -33.96292 151.47496 14118 ft 369 kts 17°
2026-04-21 05:25 -33.93783 151.48374 14804 ft 373 kts 17°
2026-04-21 05:25 -33.91311 151.49247 15494 ft 376 kts 17°
2026-04-21 05:25 -33.88789 151.50150 16170 ft 380 kts 17°
2026-04-21 05:25 -33.86209 151.51082 16882 ft 384 kts 17°
2026-04-21 05:26 -33.83674 151.51997 17573 ft 387 kts 17°
2026-04-21 05:26 -33.81081 151.52931 18270 ft 391 kts 17°
2026-04-21 05:26 -33.78464 151.53871 18894 ft 395 kts 17°
2026-04-21 05:26 -33.75811 151.54823 19435 ft 400 kts 17°
2026-04-21 05:27 -33.74004 151.55471 19825 ft 402 kts 17°
2026-04-21 05:27 -33.70425 151.56754 20579 ft 408 kts 17°
2026-04-21 05:27 -33.68577 151.57416 20957 ft 411 kts 17°
2026-04-21 05:27 -33.65823 151.58401 21481 ft 416 kts 17°
2026-04-21 05:28 -33.63031 151.59399 21998 ft 421 kts 17°
2026-04-21 05:28 -33.60210 151.60406 22521 ft 425 kts 17°
2026-04-21 05:28 -33.57359 151.61424 23035 ft 430 kts 17°
2026-04-21 05:28 -33.54480 151.62452 23538 ft 434 kts 17°
2026-04-21 05:29 -33.51571 151.63489 24040 ft 438 kts 17°
2026-04-21 05:29 -33.48638 151.64535 24457 ft 442 kts 17°
2026-04-21 05:29 -33.45684 151.65587 24881 ft 445 kts 17°
2026-04-21 05:29 -33.42708 151.66645 25331 ft 447 kts 17°
2026-04-21 05:30 -33.39717 151.67709 25772 ft 450 kts 17°
2026-04-21 05:30 -33.36750 151.68763 26198 ft 452 kts 17°
2026-04-21 05:30 -33.33724 151.69837 26615 ft 455 kts 17°
2026-04-21 05:30 -33.30680 151.70917 27025 ft 458 kts 17°
2026-04-21 05:31 -33.27617 151.72003 27434 ft 461 kts 17°
2026-04-21 05:31 -33.24497 151.73109 27843 ft 463 kts 17°
2026-04-21 05:31 -33.21436 151.74193 28237 ft 466 kts 17°
2026-04-21 05:31 -33.18323 151.75294 28626 ft 468 kts 16°
2026-04-21 05:32 -33.15187 151.76403 29002 ft 471 kts 16°
2026-04-21 05:32 -33.12042 151.77514 29377 ft 474 kts 16°
2026-04-21 05:32 -33.08873 151.78632 29738 ft 476 kts 16°
2026-04-21 05:32 -33.05688 151.79756 30097 ft 479 kts 16°
2026-04-21 05:33 -33.02484 151.80885 30441 ft 481 kts 16°
2026-04-21 05:33 -32.99265 151.82019 30722 ft 484 kts 16°
2026-04-21 05:33 -32.96036 151.83155 31003 ft 486 kts 16°
2026-04-21 05:33 -32.92792 151.84296 31348 ft 486 kts 16°
2026-04-21 05:34 -32.89555 151.85434 31765 ft 485 kts 16°
2026-04-21 05:34 -32.86321 151.86570 32174 ft 484 kts 16°
2026-04-21 05:34 -32.83092 151.87703 32482 ft 484 kts 16°
2026-04-21 05:34 -32.79862 151.88835 32818 ft 484 kts 16°
2026-04-21 05:35 -32.76632 151.89967 33180 ft 484 kts 16°
2026-04-21 05:35 -32.73402 151.91097 33552 ft 483 kts 15°
2026-04-21 05:35 -32.70181 151.92224 33896 ft 483 kts 15°
2026-04-21 05:35 -32.66958 151.93351 34246 ft 483 kts 15°
2026-04-21 05:36 -32.63732 151.94478 34554 ft 483 kts 15°
2026-04-21 05:36 -32.60510 151.95602 34856 ft 482 kts 15°
2026-04-21 05:36 -32.57296 151.96723 35154 ft 481 kts 15°
2026-04-21 05:36 -32.54084 151.97843 35303 ft 484 kts 15°
2026-04-21 05:37 -32.47581 152.00106 35283 ft 486 kts 15°
2026-04-21 05:37 -32.41143 152.02344 35272 ft 478 kts 15°
2026-04-21 05:38 -32.34759 152.04560 35283 ft 479 kts 15°
2026-04-21 05:38 -32.28357 152.06779 35284 ft 480 kts 15°
2026-04-21 05:39 -32.21944 152.08997 35275 ft 481 kts 15°
2026-04-21 05:39 -32.15517 152.11213 35282 ft 481 kts 15°
2026-04-21 05:40 -32.09084 152.13436 35273 ft 482 kts 15°
2026-04-21 05:40 -32.02641 152.15658 35275 ft 482 kts 15°
2026-04-21 05:41 -31.96203 152.17873 35264 ft 482 kts 15°
2026-04-21 05:41 -31.89773 152.20082 35261 ft 481 kts 15°
2026-04-21 05:42 -31.83349 152.22284 35265 ft 481 kts 15°
2026-04-21 05:42 -31.76929 152.24480 35258 ft 480 kts 15°
2026-04-21 05:43 -31.70563 152.26656 35261 ft 479 kts 15°
2026-04-21 05:43 -31.64169 152.28841 35269 ft 479 kts 15°
2026-04-21 05:44 -31.57773 152.31024 35267 ft 479 kts 15°
2026-04-21 05:44 -31.51381 152.33201 35255 ft 478 kts 15°
2026-04-21 05:45 -31.44989 152.35375 35253 ft 478 kts 15°
2026-04-21 05:45 -31.38603 152.37544 35267 ft 477 kts 15°
2026-04-21 05:46 -31.32223 152.39708 35255 ft 478 kts 15°
2026-04-21 05:46 -31.25837 152.41870 35252 ft 478 kts 15°
2026-04-21 05:47 -31.19449 152.44031 35250 ft 478 kts 15°
2026-04-21 05:47 -31.13051 152.46193 35247 ft 479 kts 15°
2026-04-21 05:48 -31.06648 152.48352 35235 ft 479 kts 15°
2026-04-21 05:48 -31.00245 152.50505 35241 ft 479 kts 15°
2026-04-21 05:49 -30.93836 152.52664 35264 ft 479 kts 15°
2026-04-21 05:49 -30.87435 152.54815 35247 ft 480 kts 15°
2026-04-21 05:50 -30.81011 152.56971 35240 ft 480 kts 15°
2026-04-21 05:50 -30.74619 152.59200 35237 ft 480 kts 17°
2026-04-21 05:51 -30.68248 152.61539 35233 ft 480 kts 17°
2026-04-21 05:51 -30.61887 152.63871 35227 ft 479 kts 17°
2026-04-21 05:52 -30.55538 152.66187 35231 ft 478 kts 16°
2026-04-21 05:52 -30.49179 152.68482 35239 ft 478 kts 16°
2026-04-21 05:53 -30.42837 152.70768 35229 ft 477 kts 16°
2026-04-21 05:53 -30.36499 152.73053 35233 ft 477 kts 16°
2026-04-21 05:54 -30.30152 152.75339 35235 ft 477 kts 16°
2026-04-21 05:54 -30.23813 152.77618 35230 ft 477 kts 16°
2026-04-21 05:55 -30.17466 152.79898 35230 ft 477 kts 16°
2026-04-21 05:55 -30.11121 152.82173 35224 ft 477 kts 16°
2026-04-21 05:56 -30.04776 152.84445 35230 ft 477 kts 16°
2026-04-21 05:56 -29.98425 152.86717 35219 ft 478 kts 16°
2026-04-21 05:57 -29.92066 152.88988 35209 ft 478 kts 16°
2026-04-21 05:57 -29.85711 152.91256 35210 ft 478 kts 16°
2026-04-21 05:58 -29.79357 152.93519 35209 ft 478 kts 16°
2026-04-21 05:58 -29.73000 152.95781 35205 ft 478 kts 16°
2026-04-21 05:59 -29.66641 152.98040 35196 ft 478 kts 16°
2026-04-21 06:00 -29.57105 153.01422 35208 ft 478 kts 16°
2026-04-21 06:00 -29.50797 153.03656 35210 ft 478 kts 16°
2026-04-21 06:01 -29.44447 153.05902 35200 ft 478 kts 16°
2026-04-21 06:01 -29.38098 153.08144 35213 ft 478 kts 16°
2026-04-21 06:02 -29.31744 153.10386 35199 ft 476 kts 16°
2026-04-21 06:02 -29.28585 153.11499 34916 ft 474 kts 16°
2026-04-21 06:02 -29.25460 153.12600 34596 ft 467 kts 16°
2026-04-21 06:02 -29.22362 153.13691 34248 ft 464 kts 16°
2026-04-21 06:03 -29.19283 153.14773 33799 ft 461 kts 16°
2026-04-21 06:03 -29.16232 153.15846 33389 ft 458 kts 16°
2026-04-21 06:03 -29.13198 153.16912 32990 ft 455 kts 16°
2026-04-21 06:03 -29.10184 153.17969 32600 ft 451 kts 16°
2026-04-21 06:04 -29.07190 153.19020 32221 ft 448 kts 17°
2026-04-21 06:04 -29.04218 153.20062 31840 ft 445 kts 17°
2026-04-21 06:04 -29.01262 153.21098 31465 ft 443 kts 17°
2026-04-21 06:04 -28.98330 153.22124 31096 ft 440 kts 17°
2026-04-21 06:05 -28.95406 153.23148 30715 ft 438 kts 17°
2026-04-21 06:05 -28.92498 153.24165 30351 ft 436 kts 17°
2026-04-21 06:05 -28.89605 153.25176 29939 ft 434 kts 17°
2026-04-21 06:05 -28.86730 153.26181 29523 ft 431 kts 17°
2026-04-21 06:06 -28.83875 153.27178 29118 ft 428 kts 17°
2026-04-21 06:06 -28.81043 153.28166 28739 ft 424 kts 17°
2026-04-21 06:06 -28.78228 153.29148 28352 ft 421 kts 17°
2026-04-21 06:06 -28.75437 153.30121 27974 ft 419 kts 17°
2026-04-21 06:07 -28.72658 153.31089 27594 ft 416 kts 17°
2026-04-21 06:07 -28.69899 153.32050 27209 ft 414 kts 17°
2026-04-21 06:07 -28.67153 153.33006 26838 ft 411 kts 17°
2026-04-21 06:07 -28.64427 153.33954 26479 ft 409 kts 17°
2026-04-21 06:08 -28.61713 153.34897 26113 ft 407 kts 17°
2026-04-21 06:08 -28.59012 153.35835 25749 ft 405 kts 17°
2026-04-21 06:08 -28.56323 153.36770 25385 ft 403 kts 17°
2026-04-21 06:08 -28.53647 153.37699 25017 ft 402 kts 17°
2026-04-21 06:09 -28.50976 153.38624 24652 ft 400 kts 17°
2026-04-21 06:09 -28.48317 153.39546 24261 ft 400 kts 17°
2026-04-21 06:09 -28.45663 153.40464 23903 ft 398 kts 17°
2026-04-21 06:09 -28.43014 153.41380 23474 ft 397 kts 17°
2026-04-21 06:10 -28.40377 153.42294 23075 ft 395 kts 17°
2026-04-21 06:10 -28.37755 153.43203 22709 ft 392 kts 17°
2026-04-21 06:10 -28.35156 153.44103 22328 ft 390 kts 18°
2026-04-21 06:10 -28.32571 153.44997 21969 ft 387 kts 18°
2026-04-21 06:11 -28.30873 153.45584 21729 ft 385 kts 18°
2026-04-21 06:11 -28.28323 153.46465 21372 ft 382 kts 18°
2026-04-21 06:11 -28.25785 153.47341 21018 ft 380 kts 18°
2026-04-21 06:11 -28.23269 153.48210 20662 ft 377 kts 18°
2026-04-21 06:12 -28.20764 153.49073 20310 ft 375 kts 18°
2026-04-21 06:12 -28.17450 153.50140 19832 ft 373 kts
2026-04-21 06:12 -28.15707 153.50218 19582 ft 371 kts 353°
2026-04-21 06:12 -28.13175 153.49766 19292 ft 367 kts 348°
2026-04-21 06:13 -28.10673 153.49224 18939 ft 365 kts 348°
2026-04-21 06:13 -28.08178 153.48669 18582 ft 365 kts 348°
2026-04-21 06:13 -28.05694 153.48122 18200 ft 363 kts 348°
2026-04-21 06:13 -28.03217 153.47590 17828 ft 361 kts 348°
2026-04-21 06:14 -28.00755 153.47070 17461 ft 359 kts 348°
2026-04-21 06:14 -27.98305 153.46559 17117 ft 357 kts 349°
2026-04-21 06:14 -27.95872 153.46053 16765 ft 355 kts 349°
2026-04-21 06:14 -27.93446 153.45551 16423 ft 353 kts 348°
2026-04-21 06:15 -27.91040 153.45054 16082 ft 351 kts 349°
2026-04-21 06:15 -27.88645 153.44559 15739 ft 349 kts 349°
2026-04-21 06:15 -27.86264 153.44067 15411 ft 347 kts 349°
2026-04-21 06:15 -27.83897 153.43579 15062 ft 346 kts 349°
2026-04-21 06:16 -27.81544 153.43092 14747 ft 341 kts 349°
2026-04-21 06:16 -27.79225 153.42614 14399 ft 336 kts 349°
2026-04-21 06:16 -27.76939 153.42144 14079 ft 331 kts 349°
2026-04-21 06:16 -27.74691 153.41680 13728 ft 326 kts 349°
2026-04-21 06:17 -27.72479 153.41225 13379 ft 321 kts 349°
2026-04-21 06:17 -27.70292 153.40774 13076 ft 319 kts 349°
2026-04-21 06:17 -27.68114 153.40326 12757 ft 318 kts 349°
2026-04-21 06:17 -27.65946 153.39879 12459 ft 316 kts 349°
2026-04-21 06:18 -27.63789 153.39454 12142 ft 314 kts 353°
2026-04-21 06:18 -27.61620 153.39374 11912 ft 311 kts
2026-04-21 06:18 -27.59459 153.39493 11679 ft 312 kts
2026-04-21 06:18 -27.57286 153.39646 11446 ft 314 kts
2026-04-21 06:19 -27.55095 153.39790 11208 ft 316 kts
2026-04-21 06:19 -27.52892 153.39920 10963 ft 318 kts
2026-04-21 06:19 -27.50684 153.40038 10718 ft 316 kts
2026-04-21 06:19 -27.48493 153.40145 10466 ft 314 kts
2026-04-21 06:20 -27.46313 153.40248 10120 ft 314 kts
2026-04-21 06:20 -27.44151 153.40349 9944 ft 304 kts
2026-04-21 06:20 -27.42069 153.40443 9591 ft 301 kts
2026-04-21 06:20 -27.40000 153.40539 9363 ft 294 kts
2026-04-21 06:21 -27.37974 153.40632 9101 ft 290 kts
2026-04-21 06:21 -27.35969 153.40723 8853 ft 287 kts
2026-04-21 06:21 -27.33964 153.40814 8591 ft 289 kts
2026-04-21 06:21 -27.31949 153.40906 8338 ft 291 kts
2026-04-21 06:22 -27.29925 153.40999 8077 ft 292 kts
2026-04-21 06:22 -27.27894 153.41092 7813 ft 292 kts
2026-04-21 06:22 -27.25864 153.41184 7545 ft 292 kts
2026-04-21 06:22 -27.23848 153.41276 7275 ft 288 kts
2026-04-21 06:23 -27.21858 153.41367 7019 ft 285 kts
2026-04-21 06:23 -27.19911 153.41273 6747 ft 284 kts 343°
2026-04-21 06:23 -27.18182 153.40275 6523 ft 278 kts 321°
2026-04-21 06:23 -27.16678 153.38910 6250 ft 277 kts 316°
2026-04-21 06:24 -27.15229 153.37516 5979 ft 273 kts 316°
2026-04-21 06:24 -27.13879 153.36061 5716 ft 264 kts 301°
2026-04-21 06:24 -27.13233 153.34220 5483 ft 248 kts 271°
2026-04-21 06:24 -27.13313 153.32354 5269 ft 234 kts 251°
2026-04-21 06:25 -27.13873 153.30686 5075 ft 224 kts 240°
2026-04-21 06:25 -27.14537 153.29130 4868 ft 218 kts 239°
2026-04-21 06:25 -27.15192 153.27614 4656 ft 213 kts 239°
2026-04-21 06:25 -27.15859 153.26144 4461 ft 209 kts 231°
2026-04-21 06:26 -27.16943 153.25146 4298 ft 200 kts 204°
2026-04-21 06:26 -27.18197 153.24440 4119 ft 204 kts 205°
2026-04-21 06:26 -27.19461 153.23714 3904 ft 202 kts 205°
2026-04-21 06:26 -27.20684 153.23013 3669 ft 193 kts 204°
2026-04-21 06:27 -27.21851 153.22345 3410 ft 183 kts 204°
2026-04-21 06:27 -27.22976 153.21706 3192 ft 182 kts 203°
2026-04-21 06:27 -27.24107 153.21062 2996 ft 180 kts 202°
2026-04-21 06:27 -27.25211 153.20432 2771 ft 176 kts 202°
2026-04-21 06:28 -27.26290 153.19817 2537 ft 171 kts 202°
2026-04-21 06:28 -27.27318 153.19228 2307 ft 161 kts 201°
2026-04-21 06:28 -27.28297 153.18662 2135 ft 155 kts 201°
2026-04-21 06:28 -27.29221 153.18131 1965 ft 142 kts 199°
2026-04-21 06:29 -27.30082 153.17641 1751 ft 135 kts 199°
2026-04-21 06:29 -27.30903 153.17175 1619 ft 133 kts 199°
2026-04-21 06:29 -27.31729 153.16706 1393 ft 132 kts 198°
2026-04-21 06:29 -27.32538 153.16244 1215 ft 129 kts 198°
2026-04-21 06:30 -27.33339 153.15789 1015 ft 131 kts 200°
2026-04-21 06:30 -27.34173 153.15315 815 ft 142 kts 199°
2026-04-21 06:30 -27.35049 153.14779 618 ft 142 kts 201°
2026-04-21 06:30 -27.35922 153.14294 440 ft 143 kts 200°
2026-04-21 06:31 -27.36828 153.13789 211 ft 149 kts 201°
2026-04-21 06:31 -27.37741 153.13271 33 ft 143 kts 200°
2026-04-21 06:31 -27.38532 153.12823 23 ft 108 kts 206°
2026-04-21 06:31 -27.39072 153.12517 18 ft 67 kts 206°
2026-04-21 06:32 -27.39451 153.12298 21 ft 46 kts 207°
2026-04-21 06:32 -27.39583 153.12152 19 ft 22 kts 269°
2026-04-21 06:32 -27.39488 153.12051 21 ft 21 kts 15°
2026-04-21 06:32 -27.39348 153.12129 21 ft 25 kts 27°
2026-04-21 06:33 -27.39174 153.12228 21 ft 30 kts 27°
2026-04-21 06:33 -27.38971 153.12344 21 ft 32 kts 27°
2026-04-21 06:33 -27.38827 153.12425 21 ft 17 kts 19°
2026-04-21 06:33 -27.38756 153.12386 20 ft 12 kts 290°
2026-04-21 06:34 -27.38785 153.12301 23 ft 12 kts 237°
2026-04-21 06:34 -27.38783 153.12211 20 ft 13 kts 287°
2026-04-21 06:34 -27.38751 153.12116 20 ft 12 kts 299°
2026-04-21 06:34 -27.38699 153.12083 20 ft 7 kts 334°
2026-04-21 06:35 -27.38670 153.12054 21 ft 1 kts 316°
2026-04-21 06:35 -27.38663 153.12047 20 ft 1 kts 315°
2026-04-21 06:35 -27.38657 153.12041 20 ft 0 kts 315°